01.01.2020 00:15;201
01.01.2020 00:30;202
01.01.2020 00:45;202
01.01.2020 01:00;205
01.01.2020 01:15;206
01.01.2020 01:30;204
01.01.2020 01:45;204
01.01.2020 02:00;207
01.01.2020 02:15;205
01.01.2020 02:30;202
01.01.2020 02:45;200
01.01.2020 03:00;202
01.01.2020 03:15;200
01.01.2020 03:30;203
01.01.2020 03:45;199
01.01.2020 04:00;207
01.01.2020 04:15;205
01.01.2020 04:30;204
01.01.2020 04:45;206
01.01.2020 05:00;204
01.01.2020 05:15;196
01.01.2020 05:30;192
01.01.2020 05:45;190
01.01.2020 06:00;187
01.01.2020 06:15;185
01.01.2020 06:30;184
01.01.2020 06:45;177
01.01.2020 07:00;180
01.01.2020 07:15;184
01.01.2020 07:30;184
01.01.2020 07:45;186
01.01.2020 08:00;182
01.01.2020 08:15;183
01.01.2020 08:30;185
01.01.2020 08:45;204
01.01.2020 09:00;235
01.01.2020 09:15;289
01.01.2020 09:30;361
01.01.2020 09:45;444
01.01.2020 10:00;548
01.01.2020 10:15;644
01.01.2020 10:30;758
01.01.2020 10:45;889
01.01.2020 11:00;1.008
01.01.2020 11:15;1.103
01.01.2020 11:30;1.151
01.01.2020 11:45;1.253
01.01.2020 12:00;1.329
01.01.2020 12:15;1.395
01.01.2020 12:30;1.404
01.01.2020 12:45;1.392
01.01.2020 13:00;1.373
01.01.2020 13:15;1.365
01.01.2020 13:30;1.328
01.01.2020 13:45;1.259
01.01.2020 14:00;1.189
01.01.2020 14:15;1.113
01.01.2020 14:30;1.022
01.01.2020 14:45;916
01.01.2020 15:00;794
01.01.2020 15:15;674
01.01.2020 15:30;560
01.01.2020 15:45;448
01.01.2020 16:00;349
01.01.2020 16:15;267
01.01.2020 16:30;216
01.01.2020 16:45;195
01.01.2020 17:00;187
01.01.2020 17:15;181
01.01.2020 17:30;180
01.01.2020 17:45;181
01.01.2020 18:00;181
01.01.2020 18:15;182
01.01.2020 18:30;182
01.01.2020 18:45;176
01.01.2020 19:00;178
01.01.2020 19:15;180
01.01.2020 19:30;178
01.01.2020 19:45;177
01.01.2020 20:00;177
01.01.2020 20:15;175
01.01.2020 20:30;177
01.01.2020 20:45;179
01.01.2020 21:00;173
01.01.2020 21:15;176
01.01.2020 21:30;176
01.01.2020 21:45;177
01.01.2020 22:00;175
01.01.2020 22:15;187
01.01.2020 22:30;187
01.01.2020 22:45;187
01.01.2020 23:00;189
01.01.2020 23:15;192
01.01.2020 23:30;192
01.01.2020 23:45;194
02.01.2020 00:00;193
02.01.2020 00:15;203
02.01.2020 00:30;203
02.01.2020 00:45;206
02.01.2020 01:00;202
02.01.2020 01:15;204
02.01.2020 01:30;204
02.01.2020 01:45;204
02.01.2020 02:00;197
02.01.2020 02:15;200
02.01.2020 02:30;202
02.01.2020 02:45;200
02.01.2020 03:00;198
02.01.2020 03:15;200
02.01.2020 03:30;200
02.01.2020 03:45;202
02.01.2020 04:00;197
02.01.2020 04:15;198
02.01.2020 04:30;197
02.01.2020 04:45;200
02.01.2020 05:00;192
02.01.2020 05:15;185
02.01.2020 05:30;180
02.01.2020 05:45;182
02.01.2020 06:00;177
02.01.2020 06:15;173
02.01.2020 06:30;170
02.01.2020 06:45;168
02.01.2020 07:00;166
02.01.2020 07:15;169
02.01.2020 07:30;167
02.01.2020 07:45;163
02.01.2020 08:00;158
02.01.2020 08:15;145
02.01.2020 08:30;149
02.01.2020 08:45;147
02.01.2020 09:00;157
02.01.2020 09:15;167
02.01.2020 09:30;183
02.01.2020 09:45;206
02.01.2020 10:00;243
02.01.2020 10:15;287
02.01.2020 10:30;343
02.01.2020 10:45;369
02.01.2020 11:00;367
02.01.2020 11:15;368
02.01.2020 11:30;393
02.01.2020 11:45;407
02.01.2020 12:00;423
02.01.2020 12:15;451
02.01.2020 12:30;440
02.01.2020 12:45;426
02.01.2020 13:00;437
02.01.2020 13:15;428
02.01.2020 13:30;409
02.01.2020 13:45;363
02.01.2020 14:00;334
02.01.2020 14:15;324
02.01.2020 14:30;308
02.01.2020 14:45;272
02.01.2020 15:00;256
02.01.2020 15:15;232
02.01.2020 15:30;224
02.01.2020 15:45;201
02.01.2020 16:00;171
02.01.2020 16:15;144
02.01.2020 16:30;126
02.01.2020 16:45;114
02.01.2020 17:00;113
02.01.2020 17:15;110
02.01.2020 17:30;114
02.01.2020 17:45;113
02.01.2020 18:00;112
02.01.2020 18:15;112
02.01.2020 18:30;113
02.01.2020 18:45;113
02.01.2020 19:00;115
02.01.2020 19:15;114
02.01.2020 19:30;114
02.01.2020 19:45;116
02.01.2020 20:00;111
02.01.2020 20:15;114
02.01.2020 20:30;114
02.01.2020 20:45;118
02.01.2020 21:00;116
02.01.2020 21:15;112
02.01.2020 21:30;113
02.01.2020 21:45;116
02.01.2020 22:00;138
02.01.2020 22:15;154
02.01.2020 22:30;161
02.01.2020 22:45;167
02.01.2020 23:00;172
02.01.2020 23:15;174
02.01.2020 23:30;181
02.01.2020 23:45;182
03.01.2020 00:00;185
03.01.2020 00:15;194
03.01.2020 00:30;195
03.01.2020 00:45;193
03.01.2020 01:00;195
03.01.2020 01:15;195
03.01.2020 01:30;193
03.01.2020 01:45;194
03.01.2020 02:00;195
03.01.2020 02:15;193
03.01.2020 02:30;194
03.01.2020 02:45;197
03.01.2020 03:00;192
03.01.2020 03:15;194
03.01.2020 03:30;191
03.01.2020 03:45;192
03.01.2020 04:00;192
03.01.2020 04:15;193
03.01.2020 04:30;144
03.01.2020 04:45;183
03.01.2020 05:00;192
03.01.2020 05:15;184
03.01.2020 05:30;182
03.01.2020 05:45;176
03.01.2020 06:00;176
03.01.2020 06:15;167
03.01.2020 06:30;167
03.01.2020 06:45;155
03.01.2020 07:00;158
03.01.2020 07:15;154
03.01.2020 07:30;151
03.01.2020 07:45;149
03.01.2020 08:00;151
03.01.2020 08:15;154
03.01.2020 08:30;152
03.01.2020 08:45;152
03.01.2020 09:00;152
03.01.2020 09:15;168
03.01.2020 09:30;190
03.01.2020 09:45;197
03.01.2020 10:00;243
03.01.2020 10:15;318
03.01.2020 10:30;341
03.01.2020 10:45;295
03.01.2020 11:00;283
03.01.2020 11:15;317
03.01.2020 11:30;362
03.01.2020 11:45;448
03.01.2020 12:00;447
03.01.2020 12:15;505
03.01.2020 12:30;520
03.01.2020 12:45;517
03.01.2020 13:00;513
03.01.2020 13:15;562
03.01.2020 13:30;544
03.01.2020 13:45;478
03.01.2020 14:00;443
03.01.2020 14:15;482
03.01.2020 14:30;540
03.01.2020 14:45;577
03.01.2020 15:00;602
03.01.2020 15:15;497
03.01.2020 15:30;354
03.01.2020 15:45;280
03.01.2020 16:00;234
03.01.2020 16:15;203
03.01.2020 16:30;150
03.01.2020 16:45;129
03.01.2020 17:00;121
03.01.2020 17:15;116
03.01.2020 17:30;117
03.01.2020 17:45;100
03.01.2020 18:00;97
03.01.2020 18:15;68
03.01.2020 18:30;75
03.01.2020 18:45;72
03.01.2020 19:00;82
03.01.2020 19:15;111
03.01.2020 19:30;115
03.01.2020 19:45;128
03.01.2020 20:00;128
03.01.2020 20:15;127
03.01.2020 20:30;127
03.01.2020 20:45;131
03.01.2020 21:00;117
03.01.2020 21:15;115
03.01.2020 21:30;137
03.01.2020 21:45;142
03.01.2020 22:00;157
03.01.2020 22:15;172
03.01.2020 22:30;179
03.01.2020 22:45;183
03.01.2020 23:00;184
03.01.2020 23:15;185
03.01.2020 23:30;194
03.01.2020 23:45;197
04.01.2020 00:00;200
04.01.2020 00:15;210
04.01.2020 00:30;193
04.01.2020 00:45;196
04.01.2020 01:00;182
04.01.2020 01:15;195
04.01.2020 01:30;201
04.01.2020 01:45;190
04.01.2020 02:00;206
04.01.2020 02:15;194
04.01.2020 02:30;187
04.01.2020 02:45;165
04.01.2020 03:00;173
04.01.2020 03:15;210
04.01.2020 03:30;194
04.01.2020 03:45;196
04.01.2020 04:00;205
04.01.2020 04:15;188
04.01.2020 04:30;210
04.01.2020 04:45;188
04.01.2020 05:00;208
04.01.2020 05:15;207
04.01.2020 05:30;209
04.01.2020 05:45;207
04.01.2020 06:00;205
04.01.2020 06:15;202
04.01.2020 06:30;202
04.01.2020 06:45;202
04.01.2020 07:00;203
04.01.2020 07:15;190
04.01.2020 07:30;185
04.01.2020 07:45;185
04.01.2020 08:00;183
04.01.2020 08:15;184
04.01.2020 08:30;187
04.01.2020 08:45;201
04.01.2020 09:00;215
04.01.2020 09:15;267
04.01.2020 09:30;352
04.01.2020 09:45;431
04.01.2020 10:00;536
04.01.2020 10:15;582
04.01.2020 10:30;687
04.01.2020 10:45;785
04.01.2020 11:00;997
04.01.2020 11:15;801
04.01.2020 11:30;592
04.01.2020 11:45;538
04.01.2020 12:00;521
04.01.2020 12:15;450
04.01.2020 12:30;434
04.01.2020 12:45;454
04.01.2020 13:00;581
04.01.2020 13:15;610
04.01.2020 13:30;559
04.01.2020 13:45;523
04.01.2020 14:00;492
04.01.2020 14:15;484
04.01.2020 14:30;422
04.01.2020 14:45;397
04.01.2020 15:00;344
04.01.2020 15:15;304
04.01.2020 15:30;303
04.01.2020 15:45;254
04.01.2020 16:00;196
04.01.2020 16:15;162
04.01.2020 16:30;151
04.01.2020 16:45;123
04.01.2020 17:00;113
04.01.2020 17:15;91
04.01.2020 17:30;89
04.01.2020 17:45;84
04.01.2020 18:00;111
04.01.2020 18:15;115
04.01.2020 18:30;108
04.01.2020 18:45;130
04.01.2020 19:00;136
04.01.2020 19:15;172
04.01.2020 19:30;187
04.01.2020 19:45;181
04.01.2020 20:00;193
04.01.2020 20:15;188
04.01.2020 20:30;190
04.01.2020 20:45;189
04.01.2020 21:00;189
04.01.2020 21:15;193
04.01.2020 21:30;193
04.01.2020 21:45;197
04.01.2020 22:00;196
04.01.2020 22:15;207
04.01.2020 22:30;210
04.01.2020 22:45;208
04.01.2020 23:00;208
04.01.2020 23:15;211
04.01.2020 23:30;212
04.01.2020 23:45;211
05.01.2020 00:00;212
05.01.2020 00:15;211
05.01.2020 00:30;210
05.01.2020 00:45;178
05.01.2020 01:00;171
05.01.2020 01:15;171
05.01.2020 01:30;192
05.01.2020 01:45;173
05.01.2020 02:00;172
05.01.2020 02:15;171
05.01.2020 02:30;175
05.01.2020 02:45;175
05.01.2020 03:00;174
05.01.2020 03:15;173
05.01.2020 03:30;173
05.01.2020 03:45;172
05.01.2020 04:00;175
05.01.2020 04:15;172
05.01.2020 04:30;174
05.01.2020 04:45;173
05.01.2020 05:00;173
05.01.2020 05:15;172
05.01.2020 05:30;170
05.01.2020 05:45;169
05.01.2020 06:00;167
05.01.2020 06:15;168
05.01.2020 06:30;168
05.01.2020 06:45;179
05.01.2020 07:00;175
05.01.2020 07:15;161
05.01.2020 07:30;159
05.01.2020 07:45;158
05.01.2020 08:00;156
05.01.2020 08:15;153
05.01.2020 08:30;151
05.01.2020 08:45;148
05.01.2020 09:00;148
05.01.2020 09:15;179
05.01.2020 09:30;220
05.01.2020 09:45;251
05.01.2020 10:00;279
05.01.2020 10:15;301
05.01.2020 10:30;325
05.01.2020 10:45;339
05.01.2020 11:00;348
05.01.2020 11:15;331
05.01.2020 11:30;343
05.01.2020 11:45;366
05.01.2020 12:00;425
05.01.2020 12:15;465
05.01.2020 12:30;455
05.01.2020 12:45;440
05.01.2020 13:00;454
05.01.2020 13:15;466
05.01.2020 13:30;458
05.01.2020 13:45;438
05.01.2020 14:00;422
05.01.2020 14:15;365
05.01.2020 14:30;338
05.01.2020 14:45;318
05.01.2020 15:00;291
05.01.2020 15:15;267
05.01.2020 15:30;233
05.01.2020 15:45;206
05.01.2020 16:00;178
05.01.2020 16:15;153
05.01.2020 16:30;139
05.01.2020 16:45;131
05.01.2020 17:00;125
05.01.2020 17:15;123
05.01.2020 17:30;122
05.01.2020 17:45;114
05.01.2020 18:00;122
05.01.2020 18:15;127
05.01.2020 18:30;131
05.01.2020 18:45;130
05.01.2020 19:00;128
05.01.2020 19:15;131
05.01.2020 19:30;139
05.01.2020 19:45;136
05.01.2020 20:00;142
05.01.2020 20:15;142
05.01.2020 20:30;144
05.01.2020 20:45;149
05.01.2020 21:00;148
05.01.2020 21:15;153
05.01.2020 21:30;159
05.01.2020 21:45;175
05.01.2020 22:00;174
05.01.2020 22:15;177
05.01.2020 22:30;191
05.01.2020 22:45;194
05.01.2020 23:00;194
05.01.2020 23:15;197
05.01.2020 23:30;185
05.01.2020 23:45;190
06.01.2020 00:00;179
06.01.2020 00:15;189
06.01.2020 00:30;189
06.01.2020 00:45;186
06.01.2020 01:00;187
06.01.2020 01:15;178
06.01.2020 01:30;194
06.01.2020 01:45;175
06.01.2020 02:00;198
06.01.2020 02:15;195
06.01.2020 02:30;199
06.01.2020 02:45;197
06.01.2020 03:00;199
06.01.2020 03:15;199
06.01.2020 03:30;197
06.01.2020 03:45;197
06.01.2020 04:00;198
06.01.2020 04:15;191
06.01.2020 04:30;185
06.01.2020 04:45;178
06.01.2020 05:00;178
06.01.2020 05:15;177
06.01.2020 05:30;177
06.01.2020 05:45;179
06.01.2020 06:00;174
06.01.2020 06:15;158
06.01.2020 06:30;148
06.01.2020 06:45;155
06.01.2020 07:00;148
06.01.2020 07:15;127
06.01.2020 07:30;125
06.01.2020 07:45;132
06.01.2020 08:00;146
06.01.2020 08:15;146
06.01.2020 08:30;147
06.01.2020 08:45;159
06.01.2020 09:00;184
06.01.2020 09:15;211
06.01.2020 09:30;237
06.01.2020 09:45;259
06.01.2020 10:00;274
06.01.2020 10:15;299
06.01.2020 10:30;325
06.01.2020 10:45;381
06.01.2020 11:00;424
06.01.2020 11:15;447
06.01.2020 11:30;480
06.01.2020 11:45;512
06.01.2020 12:00;508
06.01.2020 12:15;496
06.01.2020 12:30;491
06.01.2020 12:45;485
06.01.2020 13:00;453
06.01.2020 13:15;414
06.01.2020 13:30;405
06.01.2020 13:45;395
06.01.2020 14:00;364
06.01.2020 14:15;326
06.01.2020 14:30;305
06.01.2020 14:45;268
06.01.2020 15:00;226
06.01.2020 15:15;190
06.01.2020 15:30;194
06.01.2020 15:45;168
06.01.2020 16:00;147
06.01.2020 16:15;124
06.01.2020 16:30;116
06.01.2020 16:45;114
06.01.2020 17:00;116
06.01.2020 17:15;112
06.01.2020 17:30;114
06.01.2020 17:45;114
06.01.2020 18:00;113
06.01.2020 18:15;112
06.01.2020 18:30;112
06.01.2020 18:45;112
06.01.2020 19:00;117
06.01.2020 19:15;113
06.01.2020 19:30;116
06.01.2020 19:45;117
06.01.2020 20:00;114
06.01.2020 20:15;112
06.01.2020 20:30;113
06.01.2020 20:45;116
06.01.2020 21:00;119
06.01.2020 21:15;113
06.01.2020 21:30;123
06.01.2020 21:45;134
06.01.2020 22:00;148
06.01.2020 22:15;154
06.01.2020 22:30;148
06.01.2020 22:45;155
06.01.2020 23:00;165
06.01.2020 23:15;166
06.01.2020 23:30;167
06.01.2020 23:45;166
07.01.2020 00:00;174
07.01.2020 00:15;181
07.01.2020 00:30;184
07.01.2020 00:45;183
07.01.2020 01:00;184
07.01.2020 01:15;186
07.01.2020 01:30;189
07.01.2020 01:45;191
07.01.2020 02:00;188
07.01.2020 02:15;189
07.01.2020 02:30;190
07.01.2020 02:45;191
07.01.2020 03:00;187
07.01.2020 03:15;184
07.01.2020 03:30;187
07.01.2020 03:45;188
07.01.2020 04:00;188
07.01.2020 04:15;184
07.01.2020 04:30;183
07.01.2020 04:45;180
07.01.2020 05:00;177
07.01.2020 05:15;173
07.01.2020 05:30;174
07.01.2020 05:45;170
07.01.2020 06:00;163
07.01.2020 06:15;149
07.01.2020 06:30;149
07.01.2020 06:45;148
07.01.2020 07:00;148
07.01.2020 07:15;141
07.01.2020 07:30;146
07.01.2020 07:45;143
07.01.2020 08:00;140
07.01.2020 08:15;123
07.01.2020 08:30;118
07.01.2020 08:45;123
07.01.2020 09:00;159
07.01.2020 09:15;225
07.01.2020 09:30;334
07.01.2020 09:45;420
07.01.2020 10:00;570
07.01.2020 10:15;672
07.01.2020 10:30;776
07.01.2020 10:45;785
07.01.2020 11:00;792
07.01.2020 11:15;976
07.01.2020 11:30;1.256
07.01.2020 11:45;1.283
07.01.2020 12:00;1.400
07.01.2020 12:15;1.464
07.01.2020 12:30;1.506
07.01.2020 12:45;1.504
07.01.2020 13:00;1.510
07.01.2020 13:15;1.313
07.01.2020 13:30;972
07.01.2020 13:45;920
07.01.2020 14:00;1.004
07.01.2020 14:15;925
07.01.2020 14:30;829
07.01.2020 14:45;856
07.01.2020 15:00;733
07.01.2020 15:15;564
07.01.2020 15:30;456
07.01.2020 15:45;393
07.01.2020 16:00;312
07.01.2020 16:15;201
07.01.2020 16:30;151
07.01.2020 16:45;114
07.01.2020 17:00;103
07.01.2020 17:15;102
07.01.2020 17:30;101
07.01.2020 17:45;85
07.01.2020 18:00;83
07.01.2020 18:15;106
07.01.2020 18:30;110
07.01.2020 18:45;111
07.01.2020 19:00;110
07.01.2020 19:15;111
07.01.2020 19:30;112
07.01.2020 19:45;113
07.01.2020 20:00;113
07.01.2020 20:15;112
07.01.2020 20:30;114
07.01.2020 20:45;115
07.01.2020 21:00;114
07.01.2020 21:15;109
07.01.2020 21:30;113
07.01.2020 21:45;120
07.01.2020 22:00;132
07.01.2020 22:15;161
07.01.2020 22:30;169
07.01.2020 22:45;169
07.01.2020 23:00;173
07.01.2020 23:15;175
07.01.2020 23:30;178
07.01.2020 23:45;181
08.01.2020 00:00;180
08.01.2020 00:15;190
08.01.2020 00:30;191
08.01.2020 00:45;187
08.01.2020 01:00;187
08.01.2020 01:15;197
08.01.2020 01:30;198
08.01.2020 01:45;202
08.01.2020 02:00;202
08.01.2020 02:15;202
08.01.2020 02:30;202
08.01.2020 02:45;201
08.01.2020 03:00;200
08.01.2020 03:15;196
08.01.2020 03:30;198
08.01.2020 03:45;197
08.01.2020 04:00;201
08.01.2020 04:15;198
08.01.2020 04:30;195
08.01.2020 04:45;193
08.01.2020 05:00;192
08.01.2020 05:15;188
08.01.2020 05:30;187
08.01.2020 05:45;184
08.01.2020 06:00;174
08.01.2020 06:15;158
08.01.2020 06:30;152
08.01.2020 06:45;146
08.01.2020 07:00;150
08.01.2020 07:15;145
08.01.2020 07:30;143
08.01.2020 07:45;141
08.01.2020 08:00;140
08.01.2020 08:15;126
08.01.2020 08:30;125
08.01.2020 08:45;127
08.01.2020 09:00;134
08.01.2020 09:15;139
08.01.2020 09:30;182
08.01.2020 09:45;229
08.01.2020 10:00;259
08.01.2020 10:15;283
08.01.2020 10:30;317
08.01.2020 10:45;318
08.01.2020 11:00;345
08.01.2020 11:15;316
08.01.2020 11:30;309
08.01.2020 11:45;346
08.01.2020 12:00;364
08.01.2020 12:15;317
08.01.2020 12:30;306
08.01.2020 12:45;297
08.01.2020 13:00;295
08.01.2020 13:15;316
08.01.2020 13:30;284
08.01.2020 13:45;244
08.01.2020 14:00;237
08.01.2020 14:15;215
08.01.2020 14:30;165
08.01.2020 14:45;138
08.01.2020 15:00;138
08.01.2020 15:15;133
08.01.2020 15:30;130
08.01.2020 15:45;137
08.01.2020 16:00;120
08.01.2020 16:15;105
08.01.2020 16:30;101
08.01.2020 16:45;107
08.01.2020 17:00;96
08.01.2020 17:15;83
08.01.2020 17:30;86
08.01.2020 17:45;103
08.01.2020 18:00;110
08.01.2020 18:15;108
08.01.2020 18:30;113
08.01.2020 18:45;108
08.01.2020 19:00;107
08.01.2020 19:15;107
08.01.2020 19:30;112
08.01.2020 19:45;114
08.01.2020 20:00;112
08.01.2020 20:15;110
08.01.2020 20:30;116
08.01.2020 20:45;114
08.01.2020 21:00;111
08.01.2020 21:15;110
08.01.2020 21:30;112
08.01.2020 21:45;124
08.01.2020 22:00;132
08.01.2020 22:15;147
08.01.2020 22:30;151
08.01.2020 22:45;149
08.01.2020 23:00;153
08.01.2020 23:15;161
08.01.2020 23:30;163
08.01.2020 23:45;165
09.01.2020 00:00;166
09.01.2020 00:15;177
09.01.2020 00:30;175
09.01.2020 00:45;147
09.01.2020 01:00;175
09.01.2020 01:15;138
09.01.2020 01:30;178
09.01.2020 01:45;181
09.01.2020 02:00;164
09.01.2020 02:15;135
09.01.2020 02:30;178
09.01.2020 02:45;178
09.01.2020 03:00;177
09.01.2020 03:15;172
09.01.2020 03:30;139
09.01.2020 03:45;154
09.01.2020 04:00;185
09.01.2020 04:15;187
09.01.2020 04:30;171
09.01.2020 04:45;169
09.01.2020 05:00;165
09.01.2020 05:15;170
09.01.2020 05:30;175
09.01.2020 05:45;173
09.01.2020 06:00;161
09.01.2020 06:15;149
09.01.2020 06:30;150
09.01.2020 06:45;151
09.01.2020 07:00;151
09.01.2020 07:15;146
09.01.2020 07:30;142
09.01.2020 07:45;144
09.01.2020 08:00;139
09.01.2020 08:15;122
09.01.2020 08:30;119
09.01.2020 08:45;116
09.01.2020 09:00;126
09.01.2020 09:15;145
09.01.2020 09:30;155
09.01.2020 09:45;187
09.01.2020 10:00;199
09.01.2020 10:15;243
09.01.2020 10:30;303
09.01.2020 10:45;392
09.01.2020 11:00;420
09.01.2020 11:15;391
09.01.2020 11:30;339
09.01.2020 11:45;289
09.01.2020 12:00;323
09.01.2020 12:15;391
09.01.2020 12:30;368
09.01.2020 12:45;370
09.01.2020 13:00;368
09.01.2020 13:15;356
09.01.2020 13:30;331
09.01.2020 13:45;327
09.01.2020 14:00;290
09.01.2020 14:15;282
09.01.2020 14:30;306
09.01.2020 14:45;303
09.01.2020 15:00;291
09.01.2020 15:15;266
09.01.2020 15:30;249
09.01.2020 15:45;224
09.01.2020 16:00;171
09.01.2020 16:15;134
09.01.2020 16:30;116
09.01.2020 16:45;107
09.01.2020 17:00;101
09.01.2020 17:15;80
09.01.2020 17:30;86
09.01.2020 17:45;95
09.01.2020 18:00;108
09.01.2020 18:15;107
09.01.2020 18:30;109
09.01.2020 18:45;113
09.01.2020 19:00;111
09.01.2020 19:15;106
09.01.2020 19:30;108
09.01.2020 19:45;113
09.01.2020 20:00;111
09.01.2020 20:15;109
09.01.2020 20:30;106
09.01.2020 20:45;109
09.01.2020 21:00;109
09.01.2020 21:15;106
09.01.2020 21:30;109
09.01.2020 21:45;116
09.01.2020 22:00;136
09.01.2020 22:15;165
09.01.2020 22:30;175
09.01.2020 22:45;176
09.01.2020 23:00;180
09.01.2020 23:15;180
09.01.2020 23:30;163
09.01.2020 23:45;162
10.01.2020 00:00;170
10.01.2020 00:15;179
10.01.2020 00:30;163
10.01.2020 00:45;184
10.01.2020 01:00;170
10.01.2020 01:15;168
10.01.2020 01:30;133
10.01.2020 01:45;206
10.01.2020 02:00;208
10.01.2020 02:15;209
10.01.2020 02:30;208
10.01.2020 02:45;211
10.01.2020 03:00;207
10.01.2020 03:15;194
10.01.2020 03:30;146
10.01.2020 03:45;171
10.01.2020 04:00;169
10.01.2020 04:15;170
10.01.2020 04:30;166
10.01.2020 04:45;165
10.01.2020 05:00;163
10.01.2020 05:15;141
10.01.2020 05:30;192
10.01.2020 05:45;186
10.01.2020 06:00;181
10.01.2020 06:15;163
10.01.2020 06:30;150
10.01.2020 06:45;147
10.01.2020 07:00;146
10.01.2020 07:15;137
10.01.2020 07:30;137
10.01.2020 07:45;134
10.01.2020 08:00;136
10.01.2020 08:15;122
10.01.2020 08:30;116
10.01.2020 08:45;127
10.01.2020 09:00;155
10.01.2020 09:15;252
10.01.2020 09:30;360
10.01.2020 09:45;474
10.01.2020 10:00;591
10.01.2020 10:15;793
10.01.2020 10:30;896
10.01.2020 10:45;1.027
10.01.2020 11:00;1.102
10.01.2020 11:15;1.202
10.01.2020 11:30;1.193
10.01.2020 11:45;1.092
10.01.2020 12:00;1.015
10.01.2020 12:15;847
10.01.2020 12:30;771
10.01.2020 12:45;734
10.01.2020 13:00;875
10.01.2020 13:15;956
10.01.2020 13:30;792
10.01.2020 13:45;689
10.01.2020 14:00;657
10.01.2020 14:15;685
10.01.2020 14:30;592
10.01.2020 14:45;573
10.01.2020 15:00;428
10.01.2020 15:15;304
10.01.2020 15:30;224
10.01.2020 15:45;173
10.01.2020 16:00;177
10.01.2020 16:15;180
10.01.2020 16:30;158
10.01.2020 16:45;121
10.01.2020 17:00;107
10.01.2020 17:15;106
10.01.2020 17:30;113
10.01.2020 17:45;113
10.01.2020 18:00;111
10.01.2020 18:15;109
10.01.2020 18:30;110
10.01.2020 18:45;111
10.01.2020 19:00;112
10.01.2020 19:15;110
10.01.2020 19:30;111
10.01.2020 19:45;114
10.01.2020 20:00;111
10.01.2020 20:15;107
10.01.2020 20:30;106
10.01.2020 20:45;109
10.01.2020 21:00;108
10.01.2020 21:15;106
10.01.2020 21:30;108
10.01.2020 21:45;119
10.01.2020 22:00;133
10.01.2020 22:15;167
10.01.2020 22:30;169
10.01.2020 22:45;174
10.01.2020 23:00;174
10.01.2020 23:15;177
10.01.2020 23:30;180
10.01.2020 23:45;186
11.01.2020 00:00;189
11.01.2020 00:15;200
11.01.2020 00:30;201
11.01.2020 00:45;205
11.01.2020 01:00;206
11.01.2020 01:15;206
11.01.2020 01:30;207
11.01.2020 01:45;207
11.01.2020 02:00;198
11.01.2020 02:15;189
11.01.2020 02:30;192
11.01.2020 02:45;153
11.01.2020 03:00;169
11.01.2020 03:15;192
11.01.2020 03:30;202
11.01.2020 03:45;189
11.01.2020 04:00;209
11.01.2020 04:15;208
11.01.2020 04:30;207
11.01.2020 04:45;206
11.01.2020 05:00;205
11.01.2020 05:15;184
11.01.2020 05:30;187
11.01.2020 05:45;176
11.01.2020 06:00;178
11.01.2020 06:15;193
11.01.2020 06:30;179
11.01.2020 06:45;177
11.01.2020 07:00;163
11.01.2020 07:15;157
11.01.2020 07:30;158
11.01.2020 07:45;158
11.01.2020 08:00;160
11.01.2020 08:15;164
11.01.2020 08:30;158
11.01.2020 08:45;155
11.01.2020 09:00;182
11.01.2020 09:15;235
11.01.2020 09:30;282
11.01.2020 09:45;427
11.01.2020 10:00;531
11.01.2020 10:15;655
11.01.2020 10:30;673
11.01.2020 10:45;908
11.01.2020 11:00;1.207
11.01.2020 11:15;1.385
11.01.2020 11:30;1.558
11.01.2020 11:45;1.632
11.01.2020 12:00;1.521
11.01.2020 12:15;1.345
11.01.2020 12:30;1.138
11.01.2020 12:45;1.059
11.01.2020 13:00;963
11.01.2020 13:15;823
11.01.2020 13:30;798
11.01.2020 13:45;768
11.01.2020 14:00;742
11.01.2020 14:15;723
11.01.2020 14:30;697
11.01.2020 14:45;599
11.01.2020 15:00;521
11.01.2020 15:15;440
11.01.2020 15:30;359
11.01.2020 15:45;276
11.01.2020 16:00;220
11.01.2020 16:15;176
11.01.2020 16:30;160
11.01.2020 16:45;136
11.01.2020 17:00;92
11.01.2020 17:15;111
11.01.2020 17:30;117
11.01.2020 17:45;121
11.01.2020 18:00;133
11.01.2020 18:15;140
11.01.2020 18:30;143
11.01.2020 18:45;145
11.01.2020 19:00;148
11.01.2020 19:15;149
11.01.2020 19:30;153
11.01.2020 19:45;152
11.01.2020 20:00;157
11.01.2020 20:15;174
11.01.2020 20:30;175
11.01.2020 20:45;178
11.01.2020 21:00;178
11.01.2020 21:15;181
11.01.2020 21:30;185
11.01.2020 21:45;189
11.01.2020 22:00;187
11.01.2020 22:15;202
11.01.2020 22:30;203
11.01.2020 22:45;201
11.01.2020 23:00;204
11.01.2020 23:15;207
11.01.2020 23:30;208
11.01.2020 23:45;209
12.01.2020 00:00;208
12.01.2020 00:15;207
12.01.2020 00:30;207
12.01.2020 00:45;206
12.01.2020 01:00;206
12.01.2020 01:15;204
12.01.2020 01:30;209
12.01.2020 01:45;205
12.01.2020 02:00;206
12.01.2020 02:15;207
12.01.2020 02:30;206
12.01.2020 02:45;209
12.01.2020 03:00;208
12.01.2020 03:15;208
12.01.2020 03:30;210
12.01.2020 03:45;205
12.01.2020 04:00;207
12.01.2020 04:15;209
12.01.2020 04:30;205
12.01.2020 04:45;204
12.01.2020 05:00;188
12.01.2020 05:15;202
12.01.2020 05:30;176
12.01.2020 05:45;194
12.01.2020 06:00;196
12.01.2020 06:15;196
12.01.2020 06:30;190
12.01.2020 06:45;179
12.01.2020 07:00;176
12.01.2020 07:15;169
12.01.2020 07:30;160
12.01.2020 07:45;169
12.01.2020 08:00;159